Back to catalog

UFO 9

USA 140

AliveMilitaryGEO
NORAD 25501·PAYLOAD·🇺🇸 United States

Launched Oct 20, 1998 from Cape Canaveral Space Force Station

Loading…

TLE

FreshSource: Space-Track

Epoch: Sep 14, 2026, 03:23 UTC

1 25501U 98058A   26257.14161037 -.00000195  00000-0  00000-0 0  9994
2 25501  11.4117  20.8012 0009244 350.9954   2.7438  0.98178088100696

Track UFO 9 in real time with AllMySat

Download on the App Store